Location: Arrington
(35.8681°N, 86.7092°W)
Time: 23:58:34
(UTC+00:00)

Cosmos 2360 Rocket - Pass Details

Date: 23 November 2019
Orbit: 832 x 847 km, 71.0° (Epoch: 10 December)

Event Time Altitude Azimuth Distance (km) Brightness Sun altitude
Rises 01:07:33 0° 212° (SSW) 3,374 5.8 -30.5°
Reaches altitude 10° 01:10:02 10° 216° (SW) 2,446 5.0 -31.0°
Enters shadow 01:15:25 55° 290° (WNW) 1,001 2.7 -32.1°
